#timestamp,LO_Frequency,Hit,StdDev 
1523984415.4,286046996.7,P
1523984435.2,286046999.2,N
1523984455.0,286046998.6,N
1523984455.9,286046998.6,N
1523984475.8,286047001.0,N
1523984495.6,286047000.7,N
1523984515.5,286046998.1,N
1523984535.3,286047000.4,N
1523984555.1,286047002.6,N
1523984575.9,286047004.4,N
1523984595.7,286047001.4,N
1523984615.5,286047002.8,N
1523984635.4,286046998.3,N
1523984655.2,286046998.1,N
1523984675.1,286047000.9,N
1523984676.0,286047000.9,N
1523984695.8,286046998.2,N
1523984715.6,286047000.1,N
1523984735.5,286047001.6,N
1523984755.3,286047001.8,N
1523984775.1,286047000.6,N
1523984795.9,286047001.2,N
1523984815.7,286046999.9,N
1523984835.6,286047002.4,N
1523984855.4,286047000.1,N
1523984875.2,286046998.9,N
1523984895.1,286046995.5,N
1523984896.0,286046995.5,N
1523984915.8,286046992.4,Y
1523984935.7,286046992.4,P
1523984955.5,286046992.7,N
1523984975.3,286046992.4,N
1523984995.2,286046990.9,N
1523985015.0,286046989.0,Y
1523985015.9,286046989.0,P
1523985035.8,286046994.2,N
1523985055.6,286046994.0,N
1523985075.4,286046994.7,N
1523985095.3,286046993.0,Y
1523985115.1,286047000.9,P
1523985135.8,286046998.6,N
1523985155.7,286047000.7,N
1523985175.5,286047000.5,N
1523985195.4,286046998.3,N
1523985215.2,286047002.4,N
1523985235.0,286047005.5,N
1523985235.9,286047005.5,N
1523985255.8,286047007.3,N
1523985275.6,286047008.6,N
1523985295.4,286047009.7,N
1523985315.3,286047013.9,N
1523985335.1,286047013.5,N
1523985355.9,286047015.1,N
1523985375.7,286047012.8,N
1523985395.5,286047011.0,N
1523985415.4,286047011.8,N
1523985435.2,286047009.8,N
1523985455.0,286047009.8,N
1523985456.0,286047009.8,N
1523985475.8,286047013.1,N
1523985495.6,286047013.8,N
1523985515.5,286047012.8,N
1523985535.3,286047015.2,N
1523985555.1,286047012.9,N
1523985575.9,286047015.0,N
1523985595.7,286047015.0,N
1523985615.6,286047015.1,N
1523985635.4,286047016.6,N
1523985655.2,286047016.7,N
1523985675.1,286047018.6,Y
1523985676.0,286047018.6,P
1523985695.8,286047007.9,N
1523985715.6,286047009.0,N
1523985735.5,286047008.7,N
1523985755.3,286047008.8,N
1523985775.2,286047007.8,N
1523985795.9,286047007.7,N
1523985815.7,286047010.3,Y
1523985835.6,286047000.9,P
1523985855.4,286046999.6,N
1523985875.3,286046998.5,N
1523985895.1,286046999.0,N
1523985896.0,286046999.0,N
1523985915.8,286046998.2,N
1523985935.7,286046999.2,N
1523985955.5,286046999.2,N
1523985975.3,286046999.1,N
1523985995.2,286046998.4,N
1523986015.0,286047002.8,N
1523986015.9,286047002.8,N
1523986035.8,286047003.1,N
1523986055.6,286047007.5,N
1523986075.4,286047003.3,N
1523986095.3,286047003.2,N
1523986115.1,286047005.6,N
1523986135.8,286047007.3,N
1523986155.7,286047007.5,N
1523986175.5,286047004.8,N
1523986195.4,286047006.0,N
1523986215.2,286047005.0,N
1523986235.0,286047005.3,N
1523986235.9,286047005.3,N
1523986255.8,286047005.0,N
1523986275.6,286047005.4,N
1523986295.5,286047006.0,N
1523986315.3,286047004.5,N
1523986335.1,286047006.7,N
1523986355.9,286047006.7,N
1523986375.7,286047007.1,N
1523986395.5,286047007.5,N
1523986415.4,286047006.5,N
1523986435.2,286047006.4,N
1523986455.1,286047006.6,N
1523986456.0,286047006.6,N
1523986475.8,286047006.2,N
1523986495.6,286047008.6,Y
1523986515.5,286047005.5,P
1523986535.3,286047005.7,P
1523986555.1,286047005.9,P
1523986575.9,286047003.8,Y
1523986595.7,286046995.0,P
1523986615.6,286046997.8,N
1523986635.4,286046997.2,N
1523986655.2,286046999.4,N
1523986675.1,286046998.6,N
1523986676.0,286046998.6,N
1523986695.8,286047000.5,N
1523986715.6,286046999.8,N
1523986735.5,286047002.0,N
1523986755.3,286047002.2,N
1523986775.2,286047002.5,N
1523986795.9,286047000.1,N
1523986815.7,286047003.8,N
1523986835.6,286047002.6,N
1523986855.4,286047001.6,N
1523986875.2,286047002.3,N
1523986895.1,286047000.3,N
1523986896.0,286047000.3,N
1523986915.8,286047002.4,N
1523986935.7,286047002.0,N
1523986955.5,286047000.6,N
1523986975.3,286046998.9,N
1523986995.2,286047000.4,N
1523987015.0,286047000.2,N
1523987015.9,286047000.2,N
1523987035.8,286047000.6,N
1523987055.6,286047000.1,N
1523987075.4,286047000.1,N
1523987095.3,286047000.3,N
1523987115.1,286047002.6,N
1523987135.8,286047004.3,N
1523987155.7,286047002.2,N
1523987175.5,286047001.0,N
1523987195.4,286046997.3,N
1523987215.2,286046999.4,N
1523987235.0,286046996.8,N
1523987235.9,286046996.8,N
1523987255.8,286046999.0,N
1523987275.6,286046999.7,N
1523987295.5,286047002.0,N
1523987315.3,286047003.3,N
1523987335.1,286047003.4,N
1523987355.9,286047003.8,N
1523987375.7,286047004.0,N
1523987425.6,286046996.5,E
1523987435.5,286046998.4,N
1523987455.3,286046998.2,P
1523987475.2,286047001.1,P
1523987495.0,286046999.0,N
1523987495.9,286046999.0,N
1523987515.7,286046998.3,N
1523987535.6,286047001.2,N
1523987555.4,286046999.7,N
1523987575.3,286047000.3,N
1523987595.1,286047002.2,N
1523987596.0,286047002.2,N
1523987615.8,286046998.5,N
1523987635.7,286046998.2,N
1523987655.5,286046998.9,N
1523987675.3,286046996.6,N
1523987695.2,286046996.7,N
1523987715.0,286046997.4,N
1523987715.9,286046997.4,N
1523987735.8,286046997.1,N
1523987755.6,286046995.0,N
1523987775.4,286046998.8,N
1523987795.3,286046999.5,N
1523987815.1,286046993.6,Y
1523987835.9,286046993.4,P
1523987855.7,286046993.3,N
1523987875.5,286046994.6,N
1523987895.4,286046995.7,N
1523987915.2,286046995.1,N
1523987935.0,286046993.3,Y
1523987935.9,286046993.3,P
1523987955.8,286046999.9,N
1523987975.6,286047005.3,N
1523987995.5,286047008.6,N
